When you browse on this site, cookies collect data to enhance your experience and personalize the content and advertising you see.
Visit our Privacy Policy to learn more. By continuing to use the site, you agree to this use of cookies and data.
  • în România
  • Lista ţărilor
  • Pe 7 zile
  • Temperatura apei
  • Hartă satelitară
  • Meteo pe hartă
  • Widget-uri
  • user-avatar
    Intrare

    Meteo pe oră la Borzhomi

    Astăzi, 19 Martie, Marţi

    Timp Temperatura Precipitaţii Vânt Presiune Umiditate
    00:00 -2°C° 0.2 mm 0 m/s 667 mmHg 92%
    01:00 -2°C° 0.3 mm 0 m/s 668 mmHg 91%
    02:00 -1°C° 0.3 mm 1 m/s 668 mmHg 91%
    03:00 -1°C° 0 mm 1 m/s 667 mmHg 87%
    04:00 -2°C° 0.1 mm 1 m/s 667 mmHg 86%
    05:00 -2°C° 0.1 mm 1 m/s 667 mmHg 85%
    06:00 -2°C° 0.1 mm 1 m/s 668 mmHg 85%
    07:00 0°C° 0 mm 1 m/s 668 mmHg 78%
    08:00 +2°C° 0 mm 1 m/s 668 mmHg 72%
    09:00 +3°C° 0 mm 0 m/s 668 mmHg 67%
    10:00 +5°C° 0 mm 0 m/s 668 mmHg 65%
    11:00 +6°C° 0 mm 0 m/s 669 mmHg 63%
    12:00 +8°C° 0 mm 0 m/s 669 mmHg 61%
    13:00 +8°C° 0 mm 0 m/s 668 mmHg 61%
    14:00 +9°C° 0 mm 1 m/s 668 mmHg 61%
    15:00 +9°C° 0 mm 1 m/s 668 mmHg 61%
    16:00 +8°C° 0 mm 1 m/s 668 mmHg 66%
    17:00 +5°C° 0 mm 0 m/s 667 mmHg 71%
    18:00 +4°C° 0 mm 0 m/s 667 mmHg 75%
    19:00 +4°C° 0 mm 1 m/s 667 mmHg 77%
    20:00 +3°C° 0 mm 1 m/s 667 mmHg 79%
    21:00 +3°C° 0 mm 1 m/s 667 mmHg 80%
    22:00 +2°C° 0 mm 1 m/s 667 mmHg 80%
    23:00 +2°C° 0 mm 1 m/s 667 mmHg 79%

    Mâine, 20 Martie, Miercuri

    Timp Temperatura Precipitaţii Vânt Presiune Umiditate
    00:00 +2°C° 0 mm 1 m/s 667 mmHg 79%
    01:00 +1°C° 0 mm 2 m/s 667 mmHg 78%
    02:00 -1°C° 0 mm 2 m/s 667 mmHg 77%
    03:00 -1°C° 0 mm 2 m/s 666 mmHg 76%
    04:00 -1°C° 0 mm 2 m/s 666 mmHg 75%
    05:00 -1°C° 0 mm 2 m/s 666 mmHg 74%
    06:00 -1°C° 0 mm 2 m/s 666 mmHg 72%
    07:00 +3°C° 0 mm 1 m/s 666 mmHg 67%
    08:00 +5°C° 0 mm 1 m/s 667 mmHg 62%
    09:00 +7°C° 0 mm 1 m/s 667 mmHg 56%
    10:00 +9°C° 0 mm 1 m/s 667 mmHg 55%
    11:00 +10°C° 0 mm 1 m/s 667 mmHg 54%
    12:00 +11°C° 0 mm 1 m/s 667 mmHg 53%
    13:00 +11°C° 0 mm 1 m/s 667 mmHg 54%
    14:00 +11°C° 0 mm 1 m/s 666 mmHg 55%
    15:00 +10°C° 0 mm 2 m/s 666 mmHg 56%
    16:00 +9°C° 0 mm 1 m/s 666 mmHg 62%
    17:00 +8°C° 0 mm 1 m/s 666 mmHg 68%
    18:00 +6°C° 0 mm 1 m/s 666 mmHg 74%
    19:00 +5°C° 0 mm 1 m/s 666 mmHg 78%
    20:00 +4°C° 0 mm 1 m/s 666 mmHg 81%
    21:00 +2°C° 0 mm 0 m/s 666 mmHg 84%
    22:00 +2°C° 0 mm 0 m/s 666 mmHg 85%
    23:00 +3°C° 0 mm 1 m/s 666 mmHg 85%

    Poimâine, 21 Martie, Joi

    Timp Temperatura Precipitaţii Vânt Presiune Umiditate
    00:00 +3°C° 0 mm 1 m/s 666 mmHg 86%
    01:00 +2°C° 0 mm 1 m/s 666 mmHg 86%
    02:00 +2°C° 0 mm 1 m/s 666 mmHg 86%
    03:00 +2°C° 0 mm 1 m/s 666 mmHg 87%
    04:00 +1°C° 0 mm 1 m/s 666 mmHg 86%
    05:00 +1°C° 0 mm 1 m/s 666 mmHg 86%
    06:00 +1°C° 0 mm 1 m/s 666 mmHg 85%
    07:00 +3°C° 0 mm 1 m/s 667 mmHg 76%
    08:00 +4°C° 0 mm 1 m/s 667 mmHg 67%
    09:00 +6°C° 0 mm 1 m/s 667 mmHg 57%
    10:00 +6°C° 0 mm 2 m/s 667 mmHg 55%
    11:00 +7°C° 0 mm 2 m/s 667 mmHg 53%
    12:00 +8°C° 0 mm 2 m/s 667 mmHg 52%
    13:00 +8°C° 0 mm 2 m/s 667 mmHg 53%
    14:00 +7°C° 0 mm 2 m/s 667 mmHg 55%
    15:00 +7°C° 0 mm 3 m/s 667 mmHg 57%
    16:00 +6°C° 0 mm 2 m/s 666 mmHg 65%
    17:00 +5°C° 0 mm 2 m/s 666 mmHg 73%
    18:00 +3°C° 0 mm 2 m/s 666 mmHg 81%
    19:00 +3°C° 0 mm 2 m/s 667 mmHg 85%
    20:00 +3°C° 0 mm 1 m/s 667 mmHg 89%
    21:00 +2°C° 0 mm 1 m/s 667 mmHg 93%
    22:00 +2°C° 0 mm 1 m/s 667 mmHg 93%
    23:00 +2°C° 0 mm 1 m/s 667 mmHg 93%

    22 Martie, Vineri

    Timp Temperatura Precipitaţii Vânt Presiune Umiditate
    00:00 +2°C° 0 mm 1 m/s 667 mmHg 92%
    01:00 +1°C° 0 mm 1 m/s 667 mmHg 93%
    02:00 +1°C° 0 mm 1 m/s 667 mmHg 94%
    03:00 +1°C° 0 mm 1 m/s 667 mmHg 94%
    04:00 +1°C° 0 mm 1 m/s 667 mmHg 92%
    05:00 +1°C° 0 mm 1 m/s 667 mmHg 90%
    06:00 +1°C° 0 mm 1 m/s 667 mmHg 87%
    07:00 +2°C° 0 mm 1 m/s 668 mmHg 82%
    08:00 +3°C° 0 mm 1 m/s 668 mmHg 76%
    09:00 +4°C° 0 mm 1 m/s 668 mmHg 71%
    10:00 +4°C° 0.1 mm 1 m/s 668 mmHg 72%
    11:00 +4°C° 0.1 mm 2 m/s 667 mmHg 73%
    12:00 +4°C° 0.1 mm 2 m/s 667 mmHg 73%
    13:00 +4°C° 0.3 mm 2 m/s 667 mmHg 74%
    14:00 +4°C° 0.3 mm 2 m/s 666 mmHg 75%
    15:00 +3°C° 0.3 mm 3 m/s 666 mmHg 76%
    16:00 +2°C° 0.1 mm 3 m/s 666 mmHg 77%
    17:00 +1°C° 0.1 mm 3 m/s 667 mmHg 78%
    18:00 0°C° 0.1 mm 3 m/s 667 mmHg 79%
    19:00 0°C° 0.2 mm 3 m/s 667 mmHg 81%
    20:00 -1°C° 0.2 mm 3 m/s 668 mmHg 84%
    21:00 -2°C° 0.2 mm 3 m/s 668 mmHg 86%
    22:00 -2°C° 0.2 mm 3 m/s 669 mmHg 87%
    23:00 -2°C° 0.2 mm 3 m/s 669 mmHg 87%

    23 Martie, Sâmbătă

    Timp Temperatura Precipitaţii Vânt Presiune Umiditate
    00:00 -2°C° 0.2 mm 3 m/s 669 mmHg 88%
    01:00 -3°C° 0.1 mm 2 m/s 669 mmHg 89%
    02:00 -3°C° 0.1 mm 2 m/s 669 mmHg 90%
    03:00 -3°C° 0.1 mm 2 m/s 669 mmHg 91%
    04:00 -3°C° 0 mm 2 m/s 669 mmHg 91%
    05:00 -3°C° 0 mm 2 m/s 669 mmHg 91%
    06:00 -2°C° 0 mm 1 m/s 669 mmHg 92%
    07:00 -2°C° 0 mm 2 m/s 669 mmHg 83%
    08:00 -1°C° 0 mm 2 m/s 669 mmHg 75%
    09:00 +1°C° 0 mm 2 m/s 669 mmHg 67%
    10:00 +2°C° 0 mm 2 m/s 669 mmHg 64%
    11:00 +3°C° 0 mm 2 m/s 669 mmHg 62%
    12:00 +3°C° 0 mm 2 m/s 668 mmHg 60%
    13:00 +2°C° 0 mm 3 m/s 668 mmHg 62%
    14:00 +2°C° 0 mm 3 m/s 667 mmHg 64%
    15:00 +2°C° 0 mm 3 m/s 667 mmHg 67%
    16:00 +2°C° 0 mm 3 m/s 667 mmHg 72%
    17:00 +2°C° 0 mm 2 m/s 667 mmHg 77%
    18:00 +1°C° 0 mm 2 m/s 667 mmHg 81%
    19:00 -1°C° 0 mm 2 m/s 667 mmHg 85%
    20:00 -1°C° 0 mm 2 m/s 668 mmHg 89%
    21:00 -2°C° 0 mm 2 m/s 668 mmHg 92%
    22:00 0°C° 0 mm 1 m/s 668 mmHg 92%
    23:00 0°C° 0 mm 1 m/s 668 mmHg 91%

    24 Martie, Duminică

    Timp Temperatura Precipitaţii Vânt Presiune Umiditate
    00:00 -1°C° 0 mm 1 m/s 668 mmHg 90%
    01:00 -1°C° 0 mm 1 m/s 668 mmHg 89%
    02:00 -1°C° 0 mm 1 m/s 668 mmHg 88%
    03:00 -1°C° 0 mm 1 m/s 668 mmHg 87%
    04:00 -1°C° 0 mm 1 m/s 668 mmHg 87%
    05:00 -1°C° 0 mm 1 m/s 668 mmHg 88%
    06:00 -1°C° 0 mm 1 m/s 668 mmHg 88%
    07:00 0°C° 0 mm 1 m/s 668 mmHg 81%
    08:00 +2°C° 0 mm 1 m/s 668 mmHg 74%
    09:00 +3°C° 0 mm 2 m/s 668 mmHg 68%
    10:00 +4°C° 0 mm 2 m/s 668 mmHg 65%
    11:00 +5°C° 0 mm 2 m/s 668 mmHg 62%
    12:00 +7°C° 0 mm 2 m/s 668 mmHg 59%
    13:00 +7°C° 0 mm 2 m/s 668 mmHg 61%
    14:00 +7°C° 0 mm 2 m/s 667 mmHg 62%
    15:00 +7°C° 0 mm 2 m/s 667 mmHg 64%
    16:00 +6°C° 0 mm 2 m/s 667 mmHg 71%
    17:00 +4°C° 0 mm 2 m/s 667 mmHg 78%
    18:00 +4°C° 0 mm 1 m/s 666 mmHg 85%
    19:00 +3°C° 0 mm 1 m/s 667 mmHg 88%
    20:00 +3°C° 0 mm 1 m/s 667 mmHg 91%
    21:00 +2°C° 0 mm 1 m/s 667 mmHg 95%
    22:00 +2°C° 0 mm 1 m/s 667 mmHg 93%
    23:00 +2°C° 0 mm 1 m/s 667 mmHg 91%
    Arată mai mult